Arirang-5

operational
NORAD ID: 39227 Int'l Des: 2013-042 Owner: KARI Country: KR
LEOCIRCULARRETROGRADESSO

Über Arirang-5

Beschreibung wird geladen...

Live-Position

3D-Globus wird geladen...

Nächste Überflüge

Höhenverlauf

Altitude vs Time

uPlot chart will show altitude changes over time

Zweizeiliger Elementsatz

1 39227U 13042A 26062.35129358 .00002147 00000-0 15764-3 0 9995
2 39227 97.6182 250.5225 0003881 127.6717 232.4862 15.04513853687946
Epoch: 3. März 2026 • Age: 17 hours

Aktueller Status

Höhe 563.7 km
Geschwindigkeit 7.59 km/s
Subsatellitenpunkt 70.80°N, 175.96°E
Startdatum 22. Aug. 2013
Alter 12.5 years
Typ earth observation

Technische Details

Klassifizierung Payload
Masse 1400.00 kg
Trockenmasse 1400.00 kg
Gesamtmasse 1400.00 kg
Länge 4.00 m
Durchmesser 2.40 m
Spannweite 7.00 m
Form Hex + panels
Hersteller KARI
Bus-Typ Kompsat
Phasenstatus In Orbit
Besitzer/Staat KARI/KR

Große Konstellationen

Loading constellations...